TimeMDT,TemperatureF,Dew PointF,Humidity,Sea Level PressureIn,VisibilityMPH,Wind Direction,Wind SpeedMPH,Gust SpeedMPH,PrecipitationIn,Events,Conditions,WindDirDegrees,DateUTC
12:53 AM,34.0,17.1,50,29.95,10.0,East,4.6,-,N/A,,Clear,90,2012-10-09 06:53:00
1:53 AM,30.2,15.8,55,30.04,10.0,ESE,4.6,-,N/A,,Clear,110,2012-10-09 07:53:00
2:53 AM,30.0,16.0,56,29.96,10.0,Calm,Calm,-,N/A,,Clear,0,2012-10-09 08:53:00
3:53 AM,28.0,14.0,56,29.96,10.0,Calm,Calm,-,N/A,,Clear,0,2012-10-09 09:53:00
4:53 AM,28.0,15.1,58,29.98,10.0,Calm,Calm,-,N/A,,Clear,0,2012-10-09 10:53:00
5:53 AM,26.1,14.0,60,30.01,10.0,ESE,3.5,-,N/A,,Clear,120,2012-10-09 11:53:00
6:53 AM,27.0,15.1,61,30.05,10.0,Calm,Calm,-,N/A,,Clear,0,2012-10-09 12:53:00
7:53 AM,28.0,16.0,61,30.10,10.0,Calm,Calm,-,N/A,,Clear,0,2012-10-09 13:53:00
8:53 AM,35.1,15.1,44,30.07,10.0,North,3.5,-,N/A,,Clear,350,2012-10-09 14:53:00
9:53 AM,44.1,17.1,34,30.06,10.0,Calm,Calm,-,N/A,,Clear,0,2012-10-09 15:53:00
10:53 AM,54.0,17.1,23,30.01,10.0,SW,3.5,-,N/A,,Clear,220,2012-10-09 16:53:00
11:53 AM,64.0,18.0,17,29.98,10.0,WSW,11.5,18.4,N/A,,Clear,240,2012-10-09 17:53:00
12:53 PM,68.0,16.0,14,29.96,10.0,WNW,18.4,25.3,N/A,,Clear,290,2012-10-09 18:53:00
1:53 PM,70.0,14.0,12,29.95,10.0,West,16.1,29.9,N/A,,Clear,280,2012-10-09 19:53:00
2:53 PM,69.1,14.0,12,29.95,10.0,WNW,12.7,23.0,N/A,,Clear,300,2012-10-09 20:53:00
3:53 PM,70.0,10.9,10,29.95,10.0,WNW,15.0,29.9,N/A,,Clear,300,2012-10-09 21:53:00
4:53 PM,69.1,12.9,11,29.95,10.0,West,13.8,19.6,N/A,,Clear,260,2012-10-09 22:53:00
5:53 PM,64.9,17.1,16,29.98,10.0,West,6.9,-,N/A,,Clear,260,2012-10-09 23:53:00
6:53 PM,54.0,19.0,25,30.02,10.0,SW,11.5,-,N/A,,Clear,220,2012-10-10 00:53:00
7:53 PM,52.0,17.1,25,30.06,10.0,Calm,Calm,-,N/A,,Clear,0,2012-10-10 01:53:00
8:53 PM,43.0,18.0,37,30.09,10.0,Calm,Calm,-,N/A,,Clear,0,2012-10-10 02:53:00
9:53 PM,41.0,25.0,53,30.07,10.0,Calm,Calm,-,N/A,,Clear,0,2012-10-10 03:53:00
10:53 PM,34.0,21.0,59,30.09,10.0,NW,3.5,-,N/A,,Clear,320,2012-10-10 04:53:00
11:53 PM,36.0,19.0,50,30.04,10.0,Calm,Calm,-,N/A,,Clear,0,2012-10-10 05:53:00